Tracking 28794 objects as of 19-Apr-2024
HD Live streaming from Space Station
objects crossing your sky now

ATLAS CENTAUR 2 DEB

Track ATLAS CENTAUR 2 DEB now!
10-day predictions


NORAD ID: 2886
Int'l Code: 1963-047K
Perigee: 670.1 km
Apogee: 1,640.8 km
Inclination: 29.9 °
Period: 108.3 minutes
Semi major axis: 7526 km
RCS: 0.0127 m2 (small)
Launch date: November 27, 1963
Source: United States (US)
Launch site: AIR FORCE EASTERN TEST RANGE (AFETR)

Note: This is SATELLITE DEBRIS
Your satellite tracking list
Your tracking list is empty




NASA's NSSDC Master Catalog

Two Line Element Set (TLE):
1 02886U 63047K   24110.22148363  .00000249  00000-0  11679-3 0  9993
2 02886  29.8748  88.2634 0644880 219.8365 135.3110 13.29587626771120
Source of the keplerian elements: AFSPC